パンスターズ彗星

386P/PanSTARRS (2020)

English version
Home page
Updated on March 6, 2020

---------------------------------------------------------------------

・ プロフィール

・ 軌道要素

Epoch 2020 Aug. 19.0 TT = JDT 2459080.5
T 2020 Aug. 19.38578 TT                                 Williams
q   2.3682573            (2000.0)            P               Q
n   0.12055460     Peri.  353.25912     -0.62141669     -0.76110228
a   4.0583253      Node   134.94751     +0.73053713     -0.64862440
e   0.4164447      Incl.   15.22937     +0.28311977     +0.00311721
P   8.18
From 79 observations 2004 Feb. 14-2019 Nov. 3, mean residual 0".5.

・ 光度変化

        m1 = 14.0 + 5 logΔ + 10.0 log r

---------------------------------------------------------------------

軌道要素はM.P.E.C. 2019-V116に掲載されたものです。
光度グラフはComet for Windowsで作成したものです。

---------------------------------------------------------------------

Copyright(C) Seiichi Yoshida (comet@aerith.net). All rights reserved.